Theta_e
308 307 306 307 307 307 308 309 309 310 309 310 310 309 310 310 310 309 308 308 307 307 307 307 308 307 305 304 305 303 303 303 303 302 304 303 301 297 294 293 291 290 290 290 291 291 291 292 292 293 293 294 294 295 294 293 293 292 291 291 291 290
307 306 305 305 305 306 307 308 309 309 309 309 309 310 310 310 309 308 307 307 307 307 306 306 306 305 304 303 302 301 301 302 302 302 301 302 297 296 293 291 290 289 289 289 290 290 290 290 291 292 292 292 292 293 292 291 292 291 290 289 289 289
306 305 305 305 305 306 307 307 308 308 309 309 309 309 309 309 309 308 307 307 306 306 305 305 304 302 302 303 302 302 301 300 301 300 299 297 294 293 292 291 290 289 288 288 288 289 289 289 289 290 291 291 291 291 291 290 290 289 288 287 287 288
305 304 303 304 304 304 305 306 307 308 308 308 308 308 309 309 308 308 307 306 306 305 304 304 303 302 301 300 300 299 299 299 299 297 294 293 292 291 291 290 290 289 288 288 288 288 288 288 289 289 290 290 290 289 290 289 288 287 286 285 285 285
304 303 302 302 302 303 304 305 306 307 307 307 308 308 308 309 308 308 307 306 305 305 304 303 301 301 300 299 300 298 297 296 296 294 294 293 291 290 290 289 290 289 288 287 287 288 288 288 288 288 288 288 288 288 288 288 287 286 285 284 284 284
303 301 301 301 302 302 302 304 305 306 306 307 307 307 307 308 308 308 307 305 304 304 303 301 300 299 299 298 298 298 297 295 294 293 293 292 290 289 289 289 288 288 287 286 286 286 286 286 286 287 287 288 287 287 287 286 286 286 285 285 284 284
301 301 302 302 302 302 302 303 303 304 305 306 306 307 307 307 308 307 306 304 303 302 301 300 298 298 297 297 296 297 297 294 292 291 291 291 289 289 288 288 287 287 287 286 286 286 286 286 285 286 286 286 286 286 286 286 285 285 285 285 284 284
304 303 302 303 302 302 302 302 303 303 304 305 306 306 306 306 306 306 304 303 302 302 301 300 298 297 296 295 295 295 295 292 291 290 290 289 289 288 287 287 287 287 286 286 286 286 286 286 285 285 286 286 285 285 285 285 285 285 284 284 284 283
304 304 303 303 302 302 302 302 302 302 303 304 305 306 306 305 305 304 303 302 302 301 300 300 298 298 297 296 294 294 293 291 290 289 289 289 288 287 287 286 286 286 286 286 286 285 285 285 285 285 285 285 285 285 284 284 284 284 284 283 283 283
306 305 304 303 302 302 301 302 302 302 302 302 304 304 304 304 303 302 301 301 300 300 299 299 298 297 297 295 295 294 292 291 289 289 289 288 287 286 286 285 285 285 286 286 286 286 286 285 285 285 285 285 285 284 284 284 283 283 283 282 282 282
307 307 306 304 302 301 300 300 300 301 302 302 303 303 303 303 302 300 300 299 299 299 299 298 297 296 295 294 293 292 291 289 288 288 287 287 286 286 286 285 285 285 285 285 285 284 285 285 285 285 284 284 283 284 284 283 283 282 281 280 280 280
308 307 308 306 303 301 300 300 300 300 300 300 301 301 302 302 300 299 299 298 298 298 298 297 296 294 294 293 291 290 289 288 287 286 286 286 285 285 285 284 284 284 283 283 283 283 284 284 285 285 286 286 284 284 284 283 282 281 281 280 280 279
309 308 307 307 305 304 302 302 301 300 299 299 300 300 301 301 300 299 298 298 298 298 297 296 294 293 292 292 291 289 288 286 286 285 285 285 285 284 284 284 283 283 283 283 283 282 282 283 284 286 288 289 288 284 282 282 282 281 281 280 279 278
308 308 307 306 305 303 302 302 301 299 298 299 299 299 300 300 299 298 298 297 297 297 295 294 293 292 291 290 289 288 287 286 285 285 285 285 284 284 284 283 283 283 283 283 283 282 282 282 284 287 288 288 288 285 282 282 282 282 281 280 279 279
308 309 309 307 305 304 303 303 299 298 298 298 298 299 299 299 298 298 297 296 296 295 294 294 292 291 290 289 288 287 287 286 285 285 285 284 285 284 284 284 283 283 283 283 282 281 282 282 286 286 287 287 287 286 284 283 283 282 281 280 279 279
309 309 310 309 308 305 304 301 300 299 299 298 298 297 297 297 297 297 296 295 295 294 294 292 290 289 289 288 287 287 286 285 285 285 285 285 284 284 283 284 283 283 283 282 281 281 281 280 284 286 287 287 287 287 286 283 282 281 280 279 279 279
308 309 308 309 307 304 301 300 299 298 297 297 296 296 296 296 296 295 296 295 294 293 292 291 290 289 288 287 286 286 286 285 285 285 285 284 284 283 283 283 283 284 283 283 282 281 281 280 285 286 287 287 287 287 285 283 282 282 280 279 279 279
308 308 308 309 303 301 300 299 298 297 296 296 295 295 295 295 294 294 295 294 294 292 291 290 290 289 288 287 286 285 285 285 285 284 285 284 284 284 284 284 284 283 283 283 282 282 281 281 285 286 286 287 287 286 282 282 281 280 280 279 279 279
308 308 305 301 301 299 298 298 296 295 295 294 294 293 293 293 293 293 293 293 292 291 290 290 289 287 286 286 285 285 285 284 284 284 285 284 284 284 283 283 283 283 282 282 282 281 280 281 284 286 287 287 287 283 281 281 281 280 279 279 279 279
300 299 302 299 297 298 297 296 295 294 293 292 292 292 292 291 291 293 293 292 291 291 290 289 288 287 286 285 285 284 285 285 285 285 285 284 283 283 283 283 283 283 282 281 281 280 280 281 284 286 286 286 285 283 281 281 280 280 279 279 279 279
299 296 296 297 295 294 294 293 293 292 291 291 291 291 291 290 291 292 291 290 291 290 288 288 287 287 286 285 285 285 284 284 284 284 284 284 283 282 283 282 282 281 281 280 280 282 280 281 284 286 286 286 285 283 282 282 281 280 279 279 279 279
294 293 293 293 294 292 292 292 291 289 291 290 291 290 290 290 291 292 291 290 289 288 288 287 286 286 285 285 285 285 285 285 284 284 284 283 283 282 281 281 281 280 280 280 280 280 280 281 283 285 287 287 286 285 284 283 282 281 281 281 281 281
294 294 293 292 291 290 290 290 290 289 290 289 289 288 289 290 291 290 290 289 288 287 287 287 286 285 285 285 285 285 285 285 284 283 283 282 282 281 280 280 280 280 279 279 280 280 280 281 283 285 287 287 287 286 285 284 283 284 283 283 283 283
290 289 289 289 289 289 289 289 288 288 288 288 287 289 290 290 290 289 288 288 287 286 286 286 285 285 285 285 285 284 284 284 284 283 282 282 281 280 280 280 279 279 278 279 279 279 279 281 282 282 286 287 287 286 286 285 285 285 285 284 284 284
289 289 288 288 288 288 288 288 287 286 287 287 288 289 289 289 288 288 287 286 286 285 285 285 285 284 284 284 284 284 283 283 283 282 282 281 280 280 279 279 279 278 278 278 278 279 279 280 280 282 283 286 286 286 286 286 285 286 285 284 283 284
288 287 287 287 287 287 287 287 286 286 286 286 288 287 287 287 286 286 285 285 285 285 284 284 284 284 284 284 284 284 282 282 282 282 281 281 280 279 279 279 278 278 277 277 277 278 279 279 280 281 282 283 285 286 286 286 286 286 284 284 284 283
287 286 286 286 286 287 286 286 285 285 285 286 286 286 286 286 285 285 284 284 284 284 284 284 284 284 284 284 283 282 282 282 282 281 281 280 280 279 279 278 279 278 278 278 277 278 278 278 279 279 281 282 283 285 285 286 286 286 286 284 284 284
286 285 285 285 286 286 286 286 286 285 285 286 286 285 285 284 284 284 283 283 284 284 284 283 283 284 283 283 283 283 282 282 281 280 280 280 280 280 279 279 279 279 279 278 279 278 278 278 278 278 279 281 281 282 284 285 285 285 285 284 282 282
285 285 284 284 285 285 285 285 286 285 285 285 285 285 284 284 283 283 283 283 283 283 283 283 283 283 283 283 283 283 282 282 282 281 281 281 280 280 280 279 279 279 279 279 280 279 278 277 277 277 278 279 280 280 280 281 281 281 280 281 280 280
284 284 283 283 283 284 284 284 284 285 285 284 284 284 284 283 283 283 282 282 283 283 284 283 280 282 283 283 283 282 282 283 283 282 282 281 281 281 280 280 279 280 280 280 279 278 277 277 277 277 276 277 278 278 278 278 278 277 278 278 277 276
283 283 282 281 281 282 282 283 283 284 284 283 284 284 283 283 283 282 282 283 283 283 283 283 283 283 283 283 282 282 283 283 283 283 281 281 284 284 282 281 281 281 281 280 279 278 277 277 277 277 278 277 278 277 276 275 276 276 276 277 278 275
282 281 280 279 279 280 280 281 282 283 283 284 284 284 283 283 283 282 282 283 282 282 282 283 283 282 281 280 279 279 278 279 282 282 280 279 280 281 283 283 282 281 281 280 279 279 278 277 277 280 279 279 279 279 278 278 278 278 278 279 280 278
280 279 278 278 278 278 279 280 281 282 283 283 284 283 283 282 282 282 282 282 282 282 282 282 281 281 280 280 279 279 278 278 279 281 281 281 280 281 281 281 282 282 281 278 277 279 281 281 281 280 279 279 279 279 279 279 280 280 280 280 279 278
278 278 277 277 277 278 278 278 279 280 281 282 282 282 282 282 282 281 281 281 281 281 281 281 280 280 279 279 279 279 278 277 277 277 280 281 281 281 281 281 281 281 281 280 279 278 278 280 280 280 280 280 280 280 280 280 280 281 281 281 281 277
279 278 278 277 277 277 277 277 276 277 279 281 281 282 282 282 282 281 281 280 280 280 280 279 279 279 279 279 278 278 278 277 277 276 276 279 281 281 281 281 281 281 281 281 280 280 280 280 280 280 280 280 280 280 280 281 281 280 280 280 278 277
277 276 276 276 276 276 275 274 274 274 276 279 281 281 281 281 281 281 280 279 279 279 279 279 279 279 279 279 279 278 278 278 277 277 276 276 276 278 279 281 281 280 280 280 281 281 281 281 281 280 280 280 280 280 279 279 277 278 278 277 273 274
276 276 275 275 275 274 273 272 270 270 271 277 280 280 280 280 280 279 275 274 276 279 278 278 278 278 278 278 278 278 277 277 277 276 276 275 275 274 274 274 276 279 280 279 280 280 280 279 279 279 278 278 278 278 277 277 275 273 271 271 270 271
275 274 274 274 273 272 270 269 268 268 269 276 279 279 279 278 278 277 277 277 277 278 278 278 278 278 278 278 278 277 276 275 275 275 275 274 274 273 271 271 271 273 277 278 278 278 278 278 277 276 276 276 276 276 276 271 271 270 269 268 268 268
Wind_Speed
5 5 6 6 6 7 7 8 9 8 9 10 10 11 12 12 10 11 10 10 8 9 11 13 12 10 7 7 6 6 7 7 6 6 6 5 6 6 7 7 7 7 7 7 7 7 7 6 6 6 6 7 7 6 5 6 6 6 6 5 6 6
7 6 7 7 8 8 7 8 8 10 10 10 10 10 10 12 12 11 11 11 10 10 11 11 8 9 9 8 8 8 8 8 7 7 6 6 6 6 7 7 7 8 9 8 8 8 7 7 6 7 7 7 6 7 5 6 7 7 7 6 5 5
6 7 6 6 7 6 7 8 9 9 9 9 10 11 12 13 12 12 12 11 11 12 11 11 11 10 8 9 10 9 8 8 8 7 7 5 6 6 7 7 8 8 8 9 9 9 8 8 8 7 7 8 7 6 7 7 7 8 7 7 7 5
4 5 6 5 6 7 8 8 8 9 10 9 10 10 10 11 12 11 11 10 10 12 11 11 10 9 8 9 8 8 8 8 8 7 7 7 5 6 7 7 7 7 7 7 8 9 8 7 7 7 8 9 9 7 6 7 8 8 8 8 8 7
4 5 7 7 8 7 9 9 9 9 10 11 10 11 11 11 11 10 10 10 10 10 9 9 8 8 9 10 9 9 8 7 7 7 8 7 7 6 6 7 7 7 7 7 7 7 8 8 8 7 7 8 10 10 9 7 8 9 10 9 9 8
3 3 5 6 6 7 8 8 8 8 9 10 10 12 12 11 11 10 10 10 9 9 8 9 9 9 8 8 7 9 9 6 7 7 5 6 6 7 6 7 7 6 7 7 7 7 7 8 7 7 6 7 9 10 11 9 8 8 9 10 10 9
5 5 6 6 7 7 8 8 8 8 9 9 10 10 11 11 10 11 10 10 10 10 10 10 9 10 9 9 7 9 8 6 7 6 7 7 7 7 7 6 6 8 8 8 9 8 7 8 8 7 6 6 6 9 10 9 8 8 8 9 9 9
4 4 5 6 7 8 8 7 8 8 8 9 8 8 9 11 10 10 10 10 10 11 12 11 10 10 11 10 8 9 9 7 8 8 7 7 8 7 6 8 7 9 9 9 9 9 8 7 7 7 6 7 7 8 9 9 8 8 8 8 8 8
6 6 6 6 6 7 6 7 8 8 8 8 8 8 8 9 9 9 9 10 10 10 11 11 10 10 10 10 8 8 9 8 8 9 7 8 7 8 7 8 8 8 9 9 8 9 9 8 8 8 7 8 8 9 9 9 9 8 8 7 7 7
4 6 7 7 7 7 6 7 7 8 9 8 8 8 7 7 8 9 10 10 10 10 11 10 9 9 9 9 9 9 9 9 7 7 7 7 7 8 8 9 9 8 8 9 8 8 8 9 9 9 9 8 8 9 9 10 10 9 8 7 6 7
8 8 6 7 7 8 8 7 8 8 7 7 8 8 9 8 9 9 10 10 11 11 9 8 8 7 9 9 8 9 8 7 6 7 7 7 6 5 7 6 7 8 9 8 8 8 8 8 9 8 10 10 9 9 10 10 11 11 10 8 8 7
11 12 12 11 12 10 9 8 9 9 8 8 8 9 9 9 10 10 10 11 10 9 9 8 8 8 9 9 9 8 8 7 6 8 8 8 7 6 6 5 5 7 8 7 8 8 7 8 6 8 13 13 11 11 9 9 10 10 10 10 8 7
13 13 13 11 11 9 7 7 7 7 7 8 8 10 10 10 10 10 9 10 9 9 9 9 9 9 10 10 9 9 9 9 9 9 8 7 6 7 7 6 6 7 7 7 8 8 7 6 5 9 13 15 14 11 11 11 10 10 10 10 11 9
19 17 15 12 7 7 8 10 8 7 8 8 9 9 9 10 10 10 9 8 8 9 10 9 9 10 10 10 10 10 8 8 7 7 7 6 5 6 6 7 8 7 7 7 7 7 7 5 4 6 3 3 6 8 9 9 9 9 10 9 9 8
18 15 9 8 11 12 12 9 7 9 10 9 9 7 9 11 10 9 8 8 8 9 9 9 10 10 10 10 10 8 7 8 7 7 7 7 6 5 6 7 7 8 7 8 8 8 7 6 6 9 10 9 8 8 9 6 8 9 9 11 11 11
16 14 11 6 8 8 6 8 10 9 7 7 7 9 9 9 9 8 8 8 8 8 8 9 8 9 10 8 7 9 8 8 8 6 4 5 5 6 6 5 7 6 8 8 8 7 6 6 8 11 12 12 11 11 9 7 8 7 10 11 10 9
16 16 14 9 4 4 6 6 7 5 6 7 8 8 9 9 8 8 7 8 8 8 8 9 10 9 8 8 8 9 9 8 7 8 6 6 7 8 8 7 7 5 5 5 5 6 6 4 9 12 12 11 10 7 5 3 3 4 5 7 8 9
15 15 15 3 5 4 5 6 6 7 7 7 8 8 8 8 8 8 7 8 8 8 8 9 10 9 9 10 9 9 9 7 8 8 7 5 5 4 4 4 5 6 6 5 5 5 4 3 10 11 12 12 12 10 5 4 4 5 6 6 7 7
12 5 1 2 2 4 5 5 7 7 7 8 7 8 8 8 8 8 8 7 8 8 8 9 10 7 7 9 10 9 8 9 8 6 6 7 6 5 6 5 5 4 5 5 5 5 4 4 8 11 12 12 14 9 5 5 5 5 5 5 6 6
1 1 0 1 2 2 4 5 7 7 7 7 7 7 7 8 7 7 7 7 7 7 8 9 9 8 8 9 9 8 8 6 4 5 6 7 7 6 6 5 5 4 5 6 6 6 5 5 8 11 13 14 15 10 7 6 6 6 5 4 5 4
1 1 1 1 2 3 4 5 6 6 5 6 6 6 6 6 6 7 7 5 6 7 5 8 7 8 8 9 8 8 9 8 8 6 6 6 6 6 5 6 6 5 4 5 6 7 7 6 8 13 15 15 16 11 6 6 6 6 5 5 4 4
1 2 3 4 3 6 5 6 5 4 5 5 6 6 6 6 6 6 6 6 7 5 5 6 7 7 8 8 7 7 7 7 7 8 7 6 5 5 4 4 4 8 4 5 5 5 6 7 7 11 17 18 18 15 8 6 7 7 7 6 6 5
2 3 2 2 4 5 5 5 6 5 5 6 5 5 5 6 6 6 7 7 7 5 6 6 7 9 7 7 8 7 7 6 7 8 8 8 5 6 5 7 5 6 5 4 4 4 3 5 7 9 17 18 19 18 13 8 7 7 7 6 5 4
1 2 3 3 3 4 5 5 5 6 6 5 4 6 6 6 7 7 7 8 6 6 7 7 7 8 8 8 9 9 7 6 8 8 7 5 6 8 7 6 5 5 4 3 4 4 4 3 4 4 9 12 14 14 11 5 5 6 6 5 4 3
3 2 3 3 3 3 4 4 5 4 4 4 6 6 7 7 7 7 7 7 8 8 8 8 9 8 7 8 9 10 8 7 8 8 7 9 8 8 7 6 5 5 5 4 2 2 2 3 2 4 4 8 11 12 9 7 5 7 4 3 3 3
3 4 4 3 3 3 2 5 6 5 5 5 6 6 6 7 5 7 8 9 9 9 8 8 9 8 8 9 9 9 10 8 7 7 5 7 7 7 6 5 5 5 6 5 4 3 2 2 2 3 3 4 10 11 12 10 7 7 3 2 2 1
4 4 4 3 3 3 2 3 6 6 6 5 6 5 6 7 8 9 9 9 9 9 8 8 8 8 8 8 10 9 7 8 8 8 6 7 6 6 6 6 5 5 5 5 5 4 3 3 2 2 5 5 6 10 10 10 10 9 7 3 2 3
2 3 3 4 3 3 3 2 4 8 4 6 5 5 8 9 10 10 10 9 8 9 9 10 8 8 8 8 6 7 7 8 7 7 7 6 6 6 6 6 6 5 5 5 4 5 4 4 3 3 2 5 5 6 8 9 8 6 4 2 4 9
2 3 3 3 2 3 2 3 2 3 4 5 6 8 9 10 10 11 10 10 9 9 9 9 7 7 7 7 7 7 7 6 6 7 7 7 7 6 6 6 6 6 6 6 5 5 5 4 4 3 3 3 3 3 3 2 2 5 8 3 2 3
1 3 3 3 3 2 2 3 4 4 6 7 8 8 9 10 10 10 10 10 9 7 8 8 10 9 7 7 7 7 7 6 6 6 6 6 7 7 6 6 6 6 6 6 6 5 4 4 3 4 4 4 4 3 3 3 3 3 2 3 3 3
5 4 4 3 2 2 3 4 4 5 7 7 7 9 10 10 10 10 10 9 8 7 7 8 8 7 8 7 6 5 4 5 5 5 4 4 2 3 5 5 5 4 5 4 4 5 4 4 4 3 5 5 7 5 4 3 3 3 3 5 8 6
8 7 5 2 2 3 4 4 4 4 6 6 7 8 10 11 9 9 9 8 7 7 8 7 6 6 6 7 7 8 9 12 12 7 5 4 7 11 10 5 3 3 4 4 3 2 3 3 4 10 12 12 11 9 9 8 9 8 6 8 9 5
10 10 8 4 3 5 6 6 5 5 4 5 6 8 9 11 9 7 6 7 6 7 7 7 7 6 6 6 7 7 8 7 9 15 14 12 11 10 11 12 12 11 9 8 6 7 14 13 14 14 13 12 11 11 10 10 9 9 9 9 6 3
13 13 13 8 8 9 8 7 5 4 4 5 6 7 8 9 9 8 6 5 7 9 8 5 6 7 7 6 6 7 7 8 9 9 12 14 13 14 15 14 14 14 14 14 11 8 7 12 14 14 13 12 12 11 10 9 7 6 7 6 6 4
5 5 6 7 8 8 8 9 6 4 4 5 6 7 8 8 7 9 8 8 8 6 8 6 6 7 7 8 8 7 7 7 7 10 10 10 15 16 16 15 15 16 15 14 13 12 10 10 11 13 12 12 11 10 9 10 11 10 8 8 4 3
4 5 5 5 6 7 7 8 5 4 3 4 6 7 7 7 8 9 8 6 7 8 5 5 7 8 6 5 6 7 7 6 7 8 9 10 9 9 11 13 14 14 14 13 13 13 13 13 13 13 13 13 13 14 13 11 7 7 6 4 1 1
5 6 7 10 11 11 9 8 4 1 1 2 6 7 7 8 8 8 10 13 9 4 5 5 6 5 6 5 6 7 6 7 7 7 8 7 7 8 7 5 6 10 13 12 12 15 16 15 15 14 13 12 11 9 9 9 5 3 2 2 1 1
6 6 8 8 8 9 8 6 1 0 1 2 6 7 8 8 9 9 7 7 8 7 7 7 7 7 7 8 7 6 7 8 7 7 7 6 8 7 7 6 4 4 8 14 13 14 13 13 13 11 10 8 8 8 7 3 3 3 3 3 1 2
Wind_Direction
198 187 182 176 179 183 185 187 187 189 196 197 198 198 198 195 194 195 195 202 204 213 220 220 220 212 191 174 180 172 189 187 188 183 188 173 154 157 156 161 170 175 180 183 185 179 187 188 184 178 179 178 176 169 158 139 148 143 135 128 129 130
185 176 176 175 177 179 184 186 189 195 196 197 198 200 198 197 197 191 195 200 205 207 216 216 211 208 200 175 174 186 196 192 187 185 177 191 161 179 167 174 181 178 181 186 183 180 180 184 188 180 178 177 175 170 152 153 150 146 140 130 123 130
165 163 166 169 169 175 179 189 192 196 197 201 201 201 201 200 197 193 195 195 203 207 201 205 209 197 189 187 182 187 184 182 188 183 179 155 171 159 172 179 181 180 186 184 182 179 181 181 181 183 177 177 169 167 150 149 156 150 138 129 122 123
171 157 157 160 167 178 187 190 191 195 198 199 201 204 207 204 201 199 196 197 201 206 203 204 206 186 186 189 186 193 188 188 187 176 162 176 164 162 176 174 172 180 185 186 186 179 179 180 182 188 182 174 164 155 147 154 158 148 134 134 135 133
208 181 178 178 184 188 191 193 195 196 198 198 200 201 206 204 202 197 195 198 202 207 204 195 192 192 196 200 205 201 194 189 181 169 171 165 160 167 173 180 180 181 183 186 191 184 179 176 177 189 190 175 165 151 149 159 159 149 144 142 140 136
207 185 189 189 192 195 198 198 198 202 203 203 199 203 202 200 200 195 195 196 199 202 192 193 188 184 188 193 193 196 196 181 183 166 159 156 158 170 174 176 180 177 178 180 184 186 181 172 174 186 195 178 169 154 152 157 154 150 147 142 139 139
207 208 199 196 193 197 197 197 196 202 210 209 207 205 201 201 198 195 190 188 192 194 197 195 183 187 190 196 193 201 194 178 172 149 157 165 168 173 165 174 173 179 181 184 184 181 183 179 170 175 184 176 168 157 153 154 151 148 141 137 139 141
218 216 210 202 199 196 191 191 193 206 211 214 210 211 205 203 196 193 182 184 192 200 201 202 192 187 189 192 190 190 190 177 177 173 177 175 172 166 173 177 179 185 184 186 184 182 184 179 172 176 180 170 158 152 150 144 141 137 131 132 134 140
229 227 224 222 218 204 192 188 194 202 209 213 208 210 215 210 196 186 183 184 194 197 199 198 195 189 189 188 181 175 185 181 179 176 170 176 178 178 177 181 182 187 186 189 184 185 182 179 176 175 176 170 164 155 150 143 135 127 125 129 136 131
240 226 217 209 211 207 195 195 198 200 201 204 202 203 206 213 205 190 184 182 190 198 199 198 192 186 182 176 179 180 179 175 168 161 162 167 174 184 183 180 186 186 188 192 192 191 185 182 181 181 179 170 164 155 147 145 139 131 123 120 120 120
241 239 214 200 200 204 200 195 198 200 199 197 198 197 207 208 209 198 186 187 195 200 194 192 186 182 174 174 174 172 169 153 150 154 152 169 172 179 187 170 168 174 186 189 188 184 184 185 188 185 177 164 162 160 155 152 146 139 133 126 118 112
232 231 226 215 200 200 195 195 198 196 191 193 192 196 203 200 211 202 191 195 198 193 188 187 179 178 168 176 171 163 156 148 147 148 157 170 171 170 169 147 162 173 184 183 183 181 183 191 191 188 182 174 167 167 159 147 142 138 136 132 123 116
241 236 236 222 205 199 191 203 199 181 185 194 192 199 198 200 209 206 196 199 192 186 185 182 174 170 173 174 168 159 164 156 159 165 167 164 160 163 165 156 160 173 185 191 189 188 192 196 197 185 188 186 175 160 150 147 145 144 141 137 137 138
257 254 254 247 218 200 196 204 193 172 199 194 197 199 191 202 208 201 198 195 186 186 183 183 173 175 174 166 167 164 160 153 157 161 161 160 159 165 162 173 179 180 187 192 194 194 187 179 155 161 143 148 149 152 151 148 145 147 147 142 138 134
265 264 248 210 211 212 205 192 181 205 209 194 197 182 193 203 204 198 190 189 187 187 183 180 177 177 171 167 162 160 154 155 155 156 158 169 166 155 172 178 172 183 182 183 187 191 178 182 151 159 155 152 160 157 156 153 150 147 150 150 149 152
265 267 267 221 219 213 195 182 201 207 184 176 170 184 195 198 201 194 188 185 190 189 182 177 172 177 171 162 158 155 154 155 162 151 138 145 148 162 169 172 175 174 180 183 185 182 175 177 166 166 163 164 166 166 168 167 161 153 150 154 155 149
265 268 271 260 182 152 154 179 186 162 158 167 177 188 188 196 192 191 185 186 186 181 173 169 168 168 162 158 153 152 156 161 153 152 152 153 166 170 176 177 176 173 174 170 170 172 176 178 168 168 169 169 169 150 81 88 97 125 129 130 133 137
266 268 270 256 135 156 166 176 162 167 175 167 180 181 188 184 187 186 182 184 182 177 164 161 162 162 156 150 148 154 154 141 152 157 150 137 149 152 146 142 159 170 170 161 158 161 167 147 167 165 168 167 162 134 99 101 104 103 113 121 131 137
281 291 64 95 139 149 175 155 153 164 162 170 180 174 178 175 182 187 182 179 172 165 156 154 156 155 145 146 153 158 158 159 155 144 138 146 143 130 153 157 159 158 154 148 152 156 146 132 163 165 163 162 140 120 124 117 114 116 119 128 121 123
46 77 122 157 172 161 139 148 154 161 163 169 168 165 174 177 183 179 177 177 160 158 151 152 155 153 154 156 160 156 155 139 121 131 150 143 147 135 139 137 119 128 138 147 154 153 143 139 152 158 161 155 137 132 131 134 127 132 128 117 118 132
131 99 120 157 179 146 136 144 152 154 158 159 159 162 168 175 176 177 169 158 151 146 139 146 150 150 151 155 154 149 149 150 150 133 134 138 140 137 116 128 119 114 107 139 140 135 141 147 157 168 162 152 141 138 137 138 138 141 149 142 147 157
104 165 176 198 172 120 144 144 149 151 149 152 150 160 171 168 165 163 147 136 130 130 134 136 139 140 146 147 140 138 139 132 126 137 131 131 115 119 121 122 123 126 108 132 142 147 146 149 162 170 166 157 152 153 148 153 150 160 161 165 166 169
248 236 187 137 118 131 143 153 143 153 147 143 148 162 158 150 146 141 136 125 121 123 125 129 139 139 136 135 133 130 128 121 129 136 135 134 122 121 123 133 117 92 97 126 130 132 140 157 164 172 171 168 167 164 156 163 163 160 157 160 163 178
161 74 64 76 118 137 147 145 146 143 137 143 146 149 142 137 134 130 121 118 122 123 121 121 118 123 124 124 126 126 114 117 133 134 132 118 123 131 127 123 119 118 113 114 105 130 129 106 123 153 179 179 174 168 154 137 149 143 148 148 157 157
170 147 117 104 131 146 148 139 141 131 134 140 142 136 131 129 125 118 116 119 119 119 119 121 124 123 125 129 130 129 119 125 128 128 126 130 128 123 115 122 125 124 126 121 116 101 73 96 120 141 148 174 177 176 163 142 126 145 129 149 160 163
145 133 120 128 130 137 138 147 139 141 138 136 131 119 115 116 116 115 119 121 120 120 120 124 124 125 130 131 128 122 125 122 120 121 116 119 120 129 129 133 126 131 139 143 134 125 117 119 119 170 161 166 176 186 188 184 167 161 153 160 158 136
158 135 135 130 123 119 124 142 141 144 141 131 121 128 125 124 123 124 124 123 122 120 122 121 123 126 127 130 130 128 119 116 122 122 124 131 124 128 132 140 144 145 145 142 150 157 151 146 148 137 185 187 197 198 200 203 205 202 186 166 175 172
112 128 130 124 125 123 112 126 147 147 139 129 129 123 126 125 123 120 123 121 115 119 118 114 110 113 117 114 111 113 122 128 127 127 133 129 133 138 139 147 150 152 151 159 160 163 161 155 148 154 152 187 190 211 219 216 216 224 221 79 71 63
135 138 127 126 123 104 113 125 121 123 125 128 124 126 126 124 124 120 121 122 117 120 123 121 121 119 117 118 116 118 125 128 130 135 140 143 146 147 148 150 160 161 163 171 172 173 163 147 159 151 150 156 165 174 175 188 202 102 86 98 102 99
82 110 110 110 103 93 94 90 104 123 127 127 132 131 127 127 129 127 126 127 127 123 127 120 119 120 121 122 121 123 127 131 137 138 144 155 155 157 158 157 162 166 169 171 167 155 140 155 159 165 158 153 145 134 124 127 119 124 141 120 116 106
106 93 76 69 48 56 69 73 104 128 131 131 135 135 131 129 125 125 125 126 125 119 119 121 132 130 125 117 101 81 86 127 130 120 91 50 107 154 164 157 158 161 162 146 146 147 151 154 169 167 137 143 149 140 134 136 134 126 117 126 121 107
121 118 106 88 80 82 79 96 80 99 125 132 135 136 133 131 126 125 130 133 125 121 128 125 119 108 109 108 109 103 81 57 61 69 105 99 72 68 64 86 122 130 126 109 86 116 148 154 128 133 136 142 141 133 128 128 129 128 120 131 132 126
139 129 131 142 132 112 112 112 124 129 133 138 141 141 140 141 133 126 126 131 133 136 130 123 119 118 114 115 114 107 104 99 75 77 83 90 91 91 93 89 89 92 101 111 103 85 95 108 124 131 128 132 133 130 125 122 122 127 133 135 136 153
158 158 155 154 150 143 135 129 129 136 135 135 135 138 143 146 144 140 137 127 129 131 126 109 115 117 117 113 117 115 120 113 109 92 83 86 89 91 92 94 98 101 104 106 108 109 101 110 114 119 122 124 127 129 131 141 147 159 165 177 173 166
151 123 134 142 145 139 137 128 131 130 132 134 137 144 146 148 143 139 132 125 129 124 128 121 123 124 123 132 130 130 128 127 126 121 114 93 89 90 89 90 96 100 102 104 106 109 120 123 127 128 132 138 138 143 142 136 127 124 133 149 161 164
132 126 131 130 131 124 121 125 130 122 123 138 142 146 147 144 140 139 139 130 135 131 123 122 133 136 129 125 130 130 128 123 122 126 125 124 118 100 92 93 98 103 106 108 114 123 128 130 130 131 133 135 132 122 117 120 115 109 103 128 165 170
135 131 148 151 146 137 136 137 128 40 299 165 142 142 140 137 134 130 127 129 131 110 116 122 118 120 123 118 123 122 115 113 114 119 126 130 125 121 117 104 96 107 115 115 115 116 115 113 109 109 113 119 129 131 130 130 132 122 100 101 81 89
144 123 138 142 113 133 128 130 91 340 296 186 141 138 137 136 134 132 122 130 131 130 128 131 133 132 130 136 132 121 108 117 121 126 122 114 113 113 113 98 77 71 102 111 118 116 111 110 107 107 111 124 137 146 152 150 171 146 132 114 108 90